Location: Unspecified
(0.0000°N, 0.0000°E)
Time: 07:42:25
(UTC+00:00)

XW-2C - Pass Details

Date: 27 May 2021
Orbit: 506 x 525 km, 97.5° (Epoch: 17 June)

Event Time Altitude Azimuth Distance (km) Brightness Sun altitude
Rises 04:46:07 0° 43° (NE) 2,619 ? -16.5°
Reaches altitude 10° 04:49:01 10° 68° (ENE) 1,732 ? -15.8°
Maximum altitude 04:51:04 14° 101° (ESE) 1,480 ? -15.4°
Drops below altitude 10° 04:53:06 10° 135° (SE) 1,730 ? -14.9°
Sets 04:55:59 0° 160° (SSE) 2,615 ? -14.2°
